When you browse on this site, cookies collect data to enhance your experience and personalize the content and advertising you see.
Visit our Privacy Policy to learn more. By continuing to use the site, you agree to this use of cookies and data.

Stündliche Wetter Bolshie Noviki

Heute, 26 September, Samstag

Zeit Temperatur Niederschläge Wind Luftdruck Luftfeuchtigkeit
00:00 +16°C° 0 mm 5 m/S 737 mmHg 68%
01:00 +16°C° 0 mm 5 m/S 737 mmHg 69%
02:00 +15°C° 0 mm 5 m/S 737 mmHg 70%
03:00 +15°C° 0 mm 5 m/S 737 mmHg 70%
04:00 +15°C° 0 mm 5 m/S 737 mmHg 71%
05:00 +15°C° 0 mm 5 m/S 737 mmHg 72%
06:00 +15°C° 0 mm 5 m/S 737 mmHg 71%
07:00 +15°C° 0 mm 6 m/S 737 mmHg 69%
08:00 +16°C° 0 mm 6 m/S 737 mmHg 68%
09:00 +19°C° 0 mm 6 m/S 737 mmHg 64%
10:00 +20°C° 0 mm 7 m/S 737 mmHg 60%
11:00 +22°C° 0 mm 7 m/S 738 mmHg 56%
12:00 +23°C° 0 mm 7 m/S 738 mmHg 55%
13:00 +23°C° 0 mm 7 m/S 737 mmHg 54%
14:00 +24°C° 0 mm 8 m/S 737 mmHg 53%
15:00 +23°C° 0 mm 7 m/S 737 mmHg 55%
16:00 +23°C° 0 mm 6 m/S 737 mmHg 57%
17:00 +22°C° 0 mm 6 m/S 737 mmHg 59%
18:00 +21°C° 0 mm 6 m/S 738 mmHg 58%
19:00 +20°C° 0 mm 6 m/S 738 mmHg 57%
20:00 +18°C° 0 mm 7 m/S 738 mmHg 56%
21:00 +18°C° 0 mm 7 m/S 738 mmHg 57%
22:00 +18°C° 0 mm 7 m/S 738 mmHg 59%
23:00 +18°C° 0 mm 7 m/S 738 mmHg 60%

Morgen, 27 September, Sonntag

Zeit Temperatur Niederschläge Wind Luftdruck Luftfeuchtigkeit
00:00 +17°C° 0 mm 7 m/S 738 mmHg 60%
01:00 +17°C° 0 mm 7 m/S 738 mmHg 61%
02:00 +17°C° 0 mm 6 m/S 738 mmHg 61%
03:00 +16°C° 0 mm 7 m/S 738 mmHg 59%
04:00 +16°C° 0 mm 7 m/S 738 mmHg 57%
05:00 +15°C° 0 mm 7 m/S 738 mmHg 55%
06:00 +15°C° 0 mm 7 m/S 738 mmHg 54%
07:00 +16°C° 0 mm 7 m/S 738 mmHg 53%
08:00 +16°C° 0 mm 7 m/S 738 mmHg 52%
09:00 +17°C° 0 mm 8 m/S 738 mmHg 51%
10:00 +18°C° 0 mm 8 m/S 738 mmHg 51%
11:00 +19°C° 0 mm 9 m/S 738 mmHg 50%
12:00 +20°C° 0 mm 8 m/S 738 mmHg 51%
13:00 +20°C° 0 mm 8 m/S 738 mmHg 52%
14:00 +21°C° 0 mm 8 m/S 738 mmHg 52%
15:00 +18°C° 0.4 mm 8 m/S 738 mmHg 62%
16:00 +17°C° 0.4 mm 8 m/S 738 mmHg 73%
17:00 +15°C° 0.4 mm 8 m/S 738 mmHg 83%
18:00 +14°C° 0.4 mm 7 m/S 739 mmHg 85%
19:00 +14°C° 0.4 mm 6 m/S 740 mmHg 86%
20:00 +13°C° 0.4 mm 5 m/S 740 mmHg 88%
21:00 +12°C° 0 mm 4 m/S 741 mmHg 88%
22:00 +11°C° 0 mm 4 m/S 742 mmHg 88%
23:00 +10°C° 0 mm 3 m/S 743 mmHg 88%

übermorgen, 28 September, Montag

Zeit Temperatur Niederschläge Wind Luftdruck Luftfeuchtigkeit
00:00 +10°C° 0 mm 3 m/S 743 mmHg 90%
01:00 +9°C° 0 mm 2 m/S 743 mmHg 92%
02:00 +8°C° 0 mm 2 m/S 744 mmHg 94%
03:00 +8°C° 0 mm 2 m/S 744 mmHg 94%
04:00 +8°C° 0 mm 2 m/S 744 mmHg 95%
05:00 +8°C° 0 mm 3 m/S 745 mmHg 95%
06:00 +8°C° 0 mm 2 m/S 745 mmHg 93%
07:00 +9°C° 0 mm 2 m/S 746 mmHg 90%
08:00 +10°C° 0 mm 2 m/S 746 mmHg 87%
09:00 +13°C° 0 mm 2 m/S 746 mmHg 80%
10:00 +13°C° 0 mm 3 m/S 747 mmHg 73%
11:00 +16°C° 0 mm 3 m/S 747 mmHg 66%
12:00 +16°C° 0 mm 3 m/S 747 mmHg 62%
13:00 +17°C° 0 mm 3 m/S 747 mmHg 57%
14:00 +18°C° 0 mm 3 m/S 747 mmHg 53%
15:00 +17°C° 0 mm 3 m/S 747 mmHg 57%
16:00 +16°C° 0 mm 2 m/S 747 mmHg 60%
17:00 +16°C° 0 mm 2 m/S 747 mmHg 64%
18:00 +15°C° 0 mm 2 m/S 747 mmHg 66%
19:00 +13°C° 0 mm 3 m/S 747 mmHg 68%
20:00 +13°C° 0 mm 3 m/S 747 mmHg 71%
21:00 +13°C° 0 mm 3 m/S 747 mmHg 72%
22:00 +13°C° 0 mm 4 m/S 747 mmHg 73%
23:00 +13°C° 0 mm 4 m/S 747 mmHg 74%

29 September, Dienstag

Zeit Temperatur Niederschläge Wind Luftdruck Luftfeuchtigkeit
00:00 +12°C° 0 mm 4 m/S 747 mmHg 75%
01:00 +12°C° 0 mm 4 m/S 746 mmHg 76%
02:00 +12°C° 0 mm 4 m/S 746 mmHg 77%
03:00 +11°C° 0 mm 4 m/S 746 mmHg 77%
04:00 +11°C° 0 mm 4 m/S 746 mmHg 78%
05:00 +11°C° 0 mm 4 m/S 745 mmHg 78%
06:00 +11°C° 0 mm 4 m/S 745 mmHg 76%
07:00 +12°C° 0 mm 4 m/S 745 mmHg 74%
08:00 +12°C° 0 mm 4 m/S 745 mmHg 72%
09:00 +14°C° 0 mm 4 m/S 745 mmHg 69%
10:00 +16°C° 0 mm 5 m/S 745 mmHg 66%
11:00 +17°C° 0 mm 5 m/S 744 mmHg 63%
12:00 +19°C° 0 mm 5 m/S 744 mmHg 62%
13:00 +20°C° 0 mm 5 m/S 744 mmHg 60%
14:00 +21°C° 0 mm 5 m/S 744 mmHg 59%
15:00 +20°C° 0.2 mm 4 m/S 744 mmHg 65%
16:00 +19°C° 0.2 mm 4 m/S 743 mmHg 70%
17:00 +18°C° 0.2 mm 4 m/S 743 mmHg 76%
18:00 +17°C° 0.1 mm 3 m/S 743 mmHg 78%
19:00 +16°C° 0.1 mm 3 m/S 743 mmHg 81%
20:00 +14°C° 0.1 mm 3 m/S 743 mmHg 84%
21:00 +14°C° 0 mm 3 m/S 743 mmHg 84%
22:00 +14°C° 0 mm 3 m/S 743 mmHg 84%
23:00 +14°C° 0 mm 3 m/S 743 mmHg 84%

30 September, Mittwoch

Zeit Temperatur Niederschläge Wind Luftdruck Luftfeuchtigkeit
00:00 +13°C° 0 mm 3 m/S 743 mmHg 84%
01:00 +13°C° 0 mm 3 m/S 742 mmHg 84%
02:00 +13°C° 0 mm 3 m/S 742 mmHg 84%
03:00 +13°C° 0 mm 4 m/S 742 mmHg 84%
04:00 +12°C° 0 mm 4 m/S 742 mmHg 85%
05:00 +12°C° 0 mm 4 m/S 742 mmHg 85%
06:00 +12°C° 0 mm 4 m/S 742 mmHg 83%
07:00 +12°C° 0 mm 5 m/S 741 mmHg 80%
08:00 +12°C° 0 mm 5 m/S 741 mmHg 78%
09:00 +13°C° 0 mm 5 m/S 741 mmHg 74%
10:00 +13°C° 0 mm 5 m/S 741 mmHg 69%
11:00 +14°C° 0 mm 5 m/S 741 mmHg 65%
12:00 +15°C° 0 mm 5 m/S 741 mmHg 65%
13:00 +15°C° 0 mm 5 m/S 741 mmHg 64%
14:00 +15°C° 0 mm 5 m/S 741 mmHg 64%
15:00 +15°C° 0 mm 5 m/S 741 mmHg 66%
16:00 +15°C° 0 mm 5 m/S 741 mmHg 68%
17:00 +14°C° 0 mm 5 m/S 741 mmHg 70%
18:00 +14°C° 0 mm 5 m/S 741 mmHg 69%
19:00 +14°C° 0 mm 5 m/S 741 mmHg 67%
20:00 +13°C° 0 mm 5 m/S 741 mmHg 65%
21:00 +13°C° 0 mm 5 m/S 741 mmHg 65%
22:00 +13°C° 0 mm 5 m/S 740 mmHg 66%
23:00 +12°C° 0 mm 4 m/S 740 mmHg 66%

1 Oktober, Donnerstag

Zeit Temperatur Niederschläge Wind Luftdruck Luftfeuchtigkeit
00:00 +12°C° 0 mm 5 m/S 740 mmHg 63%
01:00 +12°C° 0 mm 5 m/S 740 mmHg 60%
02:00 +10°C° 0 mm 5 m/S 740 mmHg 57%
03:00 +10°C° 0 mm 5 m/S 740 mmHg 58%
04:00 +12°C° 0 mm 5 m/S 740 mmHg 59%
05:00 +12°C° 0 mm 5 m/S 739 mmHg 60%
06:00 +12°C° 0 mm 5 m/S 739 mmHg 61%
07:00 +12°C° 0 mm 5 m/S 739 mmHg 62%
08:00 +12°C° 0 mm 5 m/S 739 mmHg 63%
09:00 +13°C° 0 mm 6 m/S 739 mmHg 67%
10:00 +13°C° 0 mm 6 m/S 739 mmHg 71%
11:00 +14°C° 0 mm 7 m/S 738 mmHg 75%
12:00 +14°C° 0 mm 7 m/S 738 mmHg 74%
13:00 +14°C° 0 mm 7 m/S 738 mmHg 73%
14:00 +13°C° 0 mm 8 m/S 738 mmHg 72%
15:00 +14°C° 0.1 mm 7 m/S 738 mmHg 74%
16:00 +14°C° 0.1 mm 7 m/S 738 mmHg 77%
17:00 +14°C° 0.1 mm 7 m/S 738 mmHg 80%
18:00 +14°C° 0.1 mm 7 m/S 739 mmHg 81%
19:00 +13°C° 0.1 mm 6 m/S 739 mmHg 82%
20:00 +13°C° 0.1 mm 6 m/S 739 mmHg 83%
21:00 +13°C° 0 mm 6 m/S 739 mmHg 84%
22:00 +13°C° 0 mm 6 m/S 739 mmHg 85%
23:00 +11°C° 0 mm 6 m/S 740 mmHg 87%
Mehr zeigen